timestamp,wind_dir_avg,wind_spd_avg,wind_spd_max_dir,wind_spd_gust,battery_voltage,lat,long
2022-05-16 00:04:01+00:00,95.0,2.62,73.0,5.07,12.97,47.59359,-54.27349
2022-05-16 00:14:01+00:00,98.0,3.37,100.0,6.37,12.49,47.59359,-54.27349
2022-05-16 00:24:01+00:00,89.0,2.59,88.0,5.51,12.49,47.59359,-54.27349
2022-05-16 00:34:01+00:00,77.0,3.31,63.0,5.69,12.49,47.59359,-54.27349
2022-05-16 00:44:01+00:00,72.0,5.01,70.0,5.83,12.49,47.59359,-54.27349
2022-05-16 00:54:01+00:00,73.0,4.44,70.0,5.15,12.49,47.59359,-54.27349
2022-05-16 01:04:01+00:00,90.0,1.76,113.0,2.78,12.49,47.59359,-54.27349
2022-05-16 01:14:01+00:00,114.0,3.26,108.0,4.71,12.41,47.59359,-54.27349
2022-05-16 01:24:01+00:00,125.0,4.11,125.0,4.61,12.41,47.59359,-54.27349
2022-05-16 01:34:01+00:00,126.0,3.85,117.0,4.94,12.41,47.59359,-54.27349
2022-05-16 01:44:01+00:00,137.0,4.6,142.0,5.49,12.41,47.59359,-54.27349
2022-05-16 01:54:01+00:00,144.0,3.51,148.0,4.11,12.41,47.59359,-54.27349
2022-05-16 02:04:01+00:00,138.0,3.73,139.0,4.28,12.41,47.59359,-54.27349
2022-05-16 02:14:01+00:00,132.0,3.21,136.0,3.72,12.41,47.59359,-54.27349
2022-05-16 02:24:01+00:00,137.0,3.19,144.0,3.89,12.41,47.59359,-54.27349
2022-05-16 02:34:01+00:00,148.0,3.76,148.0,4.65,12.41,47.59359,-54.27349
2022-05-16 02:44:01+00:00,139.0,3.41,148.0,3.96,12.41,47.59359,-54.27349
2022-05-16 02:54:01+00:00,143.0,3.08,145.0,3.62,12.41,47.59359,-54.27349
2022-05-16 03:04:01+00:00,158.0,4.28,158.0,4.74,12.41,47.59359,-54.27349
2022-05-16 03:14:01+00:00,145.0,3.29,146.0,3.9,12.41,47.59359,-54.27349
2022-05-16 03:24:01+00:00,158.0,3.97,159.0,4.4,12.41,47.59359,-54.27349
2022-05-16 03:34:01+00:00,152.0,4.15,152.0,4.77,12.41,47.59359,-54.27349
2022-05-16 03:44:01+00:00,144.0,4.1,144.0,4.67,12.41,47.59359,-54.27349
2022-05-16 03:54:01+00:00,163.0,3.57,167.0,4.21,12.41,47.59359,-54.27349
2022-05-16 04:04:01+00:00,173.0,4.03,172.0,4.46,12.41,47.59359,-54.27349
2022-05-16 04:14:01+00:00,164.0,4.15,160.0,4.66,12.41,47.59359,-54.27349
2022-05-16 04:24:01+00:00,168.0,4.59,172.0,5.54,12.41,47.59359,-54.27349
2022-05-16 04:34:01+00:00,168.0,4.54,165.0,4.94,12.41,47.59359,-54.27349
2022-05-16 04:44:01+00:00,182.0,4.38,184.0,4.66,12.41,47.59359,-54.27349
2022-05-16 04:54:01+00:00,180.0,4.97,181.0,4.97,12.41,47.59359,-54.27349
2022-05-16 05:04:01+00:00,193.0,3.93,189.0,4.54,12.41,47.59359,-54.27349
2022-05-16 05:14:01+00:00,195.0,3.86,197.0,4.61,12.41,47.59359,-54.27349
2022-05-16 05:24:01+00:00,187.0,4.08,187.0,4.66,12.41,47.59359,-54.27349
2022-05-16 05:34:01+00:00,187.0,6.09,186.0,6.84,12.41,47.59359,-54.27349
2022-05-16 05:44:01+00:00,191.0,5.27,191.0,6.05,12.41,47.59359,-54.27349
2022-05-16 05:54:01+00:00,193.0,4.58,195.0,5.18,12.41,47.59359,-54.27349
2022-05-16 06:04:01+00:00,197.0,5.74,201.0,6.69,12.41,47.59359,-54.27349
2022-05-16 06:14:01+00:00,212.0,5.95,215.0,7.0,12.33,47.59359,-54.27349
2022-05-16 06:24:01+00:00,211.0,6.45,212.0,7.29,12.33,47.59359,-54.27349
2022-05-16 06:34:01+00:00,210.0,6.71,214.0,7.5,12.33,47.59359,-54.27349
2022-05-16 06:44:01+00:00,206.0,7.37,195.0,8.04,12.33,47.59359,-54.27349
2022-05-16 06:54:01+00:00,212.0,7.33,215.0,8.12,12.33,47.59359,-54.27349
2022-05-16 07:04:01+00:00,209.0,8.86,209.0,9.54,12.33,47.59359,-54.27349
2022-05-16 07:14:01+00:00,206.0,7.4,209.0,8.39,12.25,47.59359,-54.27349
2022-05-16 07:24:01+00:00,207.0,8.7,207.0,9.52,12.25,47.59359,-54.27349
2022-05-16 07:34:01+00:00,218.0,7.93,217.0,8.76,12.25,47.59359,-54.27349
2022-05-16 07:44:01+00:00,227.0,7.42,228.0,8.38,12.25,47.59359,-54.27349
2022-05-16 07:54:01+00:00,226.0,7.55,227.0,8.5,12.25,47.59359,-54.27349
2022-05-16 08:04:01+00:00,233.0,6.39,232.0,7.66,12.25,47.59359,-54.27349
2022-05-16 08:14:01+00:00,226.0,6.23,225.0,7.02,12.25,47.59359,-54.27349
2022-05-16 08:24:01+00:00,230.0,7.14,227.0,7.99,12.25,47.59359,-54.27349
2022-05-16 08:34:01+00:00,230.0,5.82,227.0,7.38,12.25,47.59359,-54.27349
2022-05-16 08:44:01+00:00,230.0,5.5,229.0,7.02,12.25,47.59359,-54.27349
2022-05-16 08:54:01+00:00,233.0,6.05,232.0,7.75,12.25,47.59359,-54.27349
2022-05-16 09:04:01+00:00,234.0,5.64,235.0,6.64,12.25,47.59359,-54.27349
2022-05-16 09:14:01+00:00,225.0,7.14,230.0,8.06,12.33,47.59359,-54.27349
2022-05-16 09:24:01+00:00,229.0,6.28,227.0,7.32,12.33,47.59359,-54.27349
2022-05-16 09:34:01+00:00,229.0,6.8,233.0,8.24,12.33,47.59359,-54.27349
2022-05-16 09:44:01+00:00,224.0,7.49,230.0,8.65,12.33,47.59359,-54.27349
2022-05-16 09:54:01+00:00,218.0,6.3,216.0,7.29,12.33,47.59359,-54.27349
2022-05-16 10:04:01+00:00,214.0,7.11,208.0,7.94,12.33,47.59359,-54.27349
2022-05-16 10:14:01+00:00,220.0,8.07,225.0,8.87,13.29,47.59359,-54.27349
2022-05-16 10:24:01+00:00,216.0,6.2,220.0,7.92,13.29,47.59359,-54.27349
2022-05-16 10:34:01+00:00,216.0,6.08,216.0,6.8,13.29,47.59359,-54.27349
2022-05-16 10:44:01+00:00,225.0,5.34,226.0,6.73,13.29,47.59359,-54.27349
2022-05-16 10:54:01+00:00,214.0,5.42,213.0,5.92,13.29,47.59359,-54.27349
2022-05-16 11:04:01+00:00,221.0,5.64,226.0,6.4,13.29,47.59359,-54.27349
2022-05-16 11:14:01+00:00,213.0,5.12,215.0,5.64,13.29,47.59359,-54.27349
2022-05-16 11:24:01+00:00,217.0,4.61,220.0,5.29,13.29,47.59359,-54.27349
2022-05-16 11:34:01+00:00,209.0,5.05,206.0,5.77,13.29,47.59359,-54.27349
2022-05-16 11:44:01+00:00,206.0,5.74,202.0,6.8,13.29,47.59359,-54.27349
2022-05-16 11:54:01+00:00,212.0,4.49,226.0,5.12,13.29,47.59359,-54.27349
2022-05-16 12:04:01+00:00,217.0,5.36,220.0,5.87,13.29,47.59359,-54.27349
2022-05-16 12:14:01+00:00,211.0,5.2,208.0,6.4,13.6,47.59359,-54.27349
2022-05-16 12:24:01+00:00,205.0,5.23,207.0,5.92,13.6,47.59359,-54.27349
2022-05-16 12:34:01+00:00,215.0,5.71,218.0,6.57,13.6,47.59359,-54.27349
2022-05-16 12:44:01+00:00,215.0,5.16,218.0,6.33,13.6,47.59359,-54.27349
2022-05-16 12:54:01+00:00,212.0,5.73,216.0,6.6,13.6,47.59359,-54.27349
2022-05-16 13:04:01+00:00,211.0,5.59,212.0,6.56,13.6,47.59359,-54.27349
2022-05-16 13:14:01+00:00,212.0,5.68,212.0,6.32,13.68,47.59359,-54.27349
2022-05-16 13:24:01+00:00,208.0,5.84,210.0,6.25,13.68,47.59359,-54.27349
2022-05-16 13:34:01+00:00,208.0,5.63,215.0,6.66,13.68,47.59359,-54.27349
2022-05-16 13:44:01+00:00,213.0,6.49,215.0,7.07,13.68,47.59359,-54.27349
2022-05-16 13:54:01+00:00,206.0,7.29,206.0,7.77,13.68,47.59359,-54.27349
2022-05-16 14:04:01+00:00,206.0,6.53,209.0,7.33,13.68,47.59359,-54.27349
2022-05-16 14:14:01+00:00,202.0,5.47,205.0,5.88,13.6,47.59359,-54.27349
2022-05-16 14:24:01+00:00,204.0,5.62,203.0,6.2,13.6,47.59359,-54.27349
2022-05-16 14:34:01+00:00,214.0,5.46,220.0,6.11,13.6,47.59359,-54.27349
2022-05-16 14:44:01+00:00,213.0,5.42,215.0,6.26,13.6,47.59359,-54.27349
2022-05-16 14:54:01+00:00,216.0,5.61,216.0,6.51,13.6,47.59359,-54.27349
2022-05-16 15:04:01+00:00,215.0,5.46,215.0,6.2,13.6,47.59359,-54.27349
2022-05-16 15:14:00+00:00,213.0,5.4,211.0,6.18,13.76,47.59359,-54.27349
2022-05-16 15:24:00+00:00,217.0,5.47,218.0,6.04,13.76,47.59359,-54.27349
2022-05-16 15:34:00+00:00,216.0,6.15,220.0,6.88,13.76,47.59359,-54.27349
2022-05-16 15:44:00+00:00,219.0,6.39,217.0,7.02,13.76,47.59359,-54.27349
2022-05-16 15:54:00+00:00,214.0,6.35,216.0,7.13,13.76,47.59359,-54.27349
2022-05-16 16:04:00+00:00,216.0,6.2,218.0,7.04,13.76,47.59359,-54.27349
2022-05-16 16:14:00+00:00,213.0,6.06,219.0,6.91,13.68,47.59359,-54.27349
2022-05-16 16:24:00+00:00,219.0,5.33,221.0,6.49,13.68,47.59359,-54.27349
2022-05-16 16:34:00+00:00,226.0,5.23,228.0,5.86,13.68,47.59359,-54.27349
2022-05-16 16:44:00+00:00,220.0,5.87,221.0,6.58,13.68,47.59359,-54.27349
2022-05-16 16:54:00+00:00,220.0,6.09,223.0,7.02,13.68,47.59359,-54.27349
2022-05-16 17:04:00+00:00,214.0,5.97,211.0,6.68,13.68,47.59359,-54.27349
2022-05-16 17:14:01+00:00,218.0,6.84,220.0,7.51,13.68,47.59359,-54.27349
2022-05-16 17:24:01+00:00,217.0,5.92,213.0,6.65,13.68,47.59359,-54.27349
2022-05-16 17:34:01+00:00,223.0,6.0,225.0,6.71,13.68,47.59359,-54.27349
2022-05-16 17:44:01+00:00,223.0,5.43,227.0,6.19,13.68,47.59359,-54.27349
2022-05-16 17:54:01+00:00,225.0,5.68,229.0,6.5,13.68,47.59359,-54.27349
2022-05-16 18:04:01+00:00,219.0,5.37,230.0,6.25,13.68,47.59359,-54.27349
2022-05-16 18:14:00+00:00,221.0,6.44,222.0,7.01,13.68,47.59359,-54.27349
2022-05-16 18:24:00+00:00,225.0,6.01,227.0,6.74,13.68,47.59359,-54.27349
2022-05-16 18:34:00+00:00,218.0,5.93,216.0,6.65,13.68,47.59359,-54.27349
2022-05-16 18:44:00+00:00,222.0,6.31,221.0,6.95,13.68,47.59359,-54.27349
2022-05-16 18:54:00+00:00,224.0,4.99,227.0,5.72,13.68,47.59359,-54.27349
2022-05-16 19:04:00+00:00,223.0,5.26,222.0,6.14,13.68,47.59359,-54.27349
2022-05-16 19:14:00+00:00,221.0,5.97,223.0,6.51,13.76,47.59359,-54.27349
2022-05-16 19:24:00+00:00,218.0,5.21,216.0,5.67,13.76,47.59359,-54.27349
2022-05-16 19:34:00+00:00,217.0,5.56,219.0,6.01,13.76,47.59359,-54.27349
2022-05-16 19:44:00+00:00,234.0,6.73,237.0,7.35,13.76,47.59359,-54.27349
2022-05-16 19:54:00+00:00,218.0,5.58,232.0,6.99,13.76,47.59359,-54.27349
2022-05-16 20:04:00+00:00,226.0,6.14,236.0,7.07,13.76,47.59359,-54.27349
2022-05-16 20:14:00+00:00,228.0,5.17,242.0,6.87,13.76,47.59359,-54.27349
2022-05-16 20:24:00+00:00,239.0,6.84,238.0,7.46,13.76,47.59359,-54.27349
2022-05-16 20:34:00+00:00,223.0,6.73,233.0,8.05,13.76,47.59359,-54.27349
2022-05-16 20:44:00+00:00,228.0,6.46,243.0,9.08,13.76,47.59359,-54.27349
2022-05-16 20:54:00+00:00,228.0,5.69,230.0,6.25,13.76,47.59359,-54.27349
2022-05-16 21:04:00+00:00,217.0,5.69,217.0,6.18,13.76,47.59359,-54.27349
2022-05-16 21:14:00+00:00,225.0,5.56,237.0,6.69,13.76,47.59359,-54.27349
2022-05-16 21:24:00+00:00,230.0,4.85,234.0,5.63,13.76,47.59359,-54.27349
2022-05-16 21:34:00+00:00,229.0,5.21,244.0,6.95,13.76,47.59359,-54.27349
2022-05-16 21:44:00+00:00,243.0,6.81,242.0,7.45,13.76,47.59359,-54.27349
2022-05-16 21:54:00+00:00,241.0,6.75,243.0,7.13,13.76,47.59359,-54.27349
2022-05-16 22:04:00+00:00,246.0,6.46,248.0,7.16,13.76,47.59359,-54.27349
2022-05-16 22:14:00+00:00,243.0,6.18,245.0,6.51,13.6,47.59359,-54.27349
2022-05-16 22:24:00+00:00,247.0,6.61,249.0,7.08,13.6,47.59359,-54.27349
2022-05-16 22:34:00+00:00,243.0,5.85,243.0,6.38,13.6,47.59359,-54.27349
2022-05-16 22:44:00+00:00,238.0,5.56,239.0,5.96,13.6,47.59359,-54.27349
2022-05-16 22:54:00+00:00,244.0,6.49,242.0,6.91,13.6,47.59359,-54.27349
2022-05-16 23:04:00+00:00,247.0,6.77,249.0,7.3,13.6,47.59359,-54.27349
2022-05-16 23:14:01+00:00,246.0,6.85,245.0,7.42,13.05,47.59359,-54.27349
2022-05-16 23:24:01+00:00,246.0,6.85,249.0,7.33,13.05,47.59359,-54.27349
2022-05-16 23:34:01+00:00,247.0,6.76,248.0,7.4,13.05,47.59359,-54.27349
2022-05-16 23:44:01+00:00,241.0,6.35,241.0,7.39,13.05,47.59359,-54.27349
2022-05-16 23:54:01+00:00,244.0,6.98,245.0,7.43,13.05,47.59359,-54.27349
